Weather History for Kodiak, AK

Change the Weather History Date:

Friday, September 6, 2013

  Actual Average Record
Temperature  
Mean Temperature 54 °F 52 °F  
Max Temperature 55 °F 58 °F 68 °F (1985)
Min Temperature 52 °F 46 °F 38 °F (1980)
Degree Days  
Heating Degree Days 11 13  
Month to date heating degree days 55 74  
Since 1 July heating degree days 534 704  
Cooling Degree Days 0    
Month to date cooling degree days 0  
Year to date cooling degree days 6  
Growing Degree Days 4 (Base 50)    
Moisture  
Dew Point 50 °F    
Average Humidity 0    
Maximum Humidity 0    
Minimum Humidity 0    
Precipitation  
Precipitation 1.64 in 0.20 in 2.58 in (2008)
Month to date precipitation 2.10 1.16  
Year to date precipitation 42.01 47.95  
Snow  
Snow 0.00 in 0.00 in 7.00 in (1996)
Month to date snowfall 0.0 0.0  
Since 1 July snowfall 0.0 0.0  
Since 1 September snowfall 0.0 0.0  
Snow Depth 0.00 in    
Sea Level Pressure  
Sea Level Pressure 29.41 in    
Wind  
Wind Speed 18 mph (NNE)    
Max Wind Speed 36 mph    
Max Gust Speed 49 mph    
Visibility 4 miles    
Events Rain    
T = Trace of Precipitation, MM = Missing Value Source: NWS Daily Summary

Daily Weather History Graph

Daily Weather History Graph

Search for Another Location

Airport:

Trip Planner

Search our weather history database for the weather conditions in past years. The results will help you decide how hot, cold, wet, or windy it might be!

Date:

Astronomy

Sep. 06, 2013 Rise Set
Actual Time 7:22 AM AKDT 8:52 PM AKDT
Civil Twilight 6:41 AM AKDT 9:33 PM AKDT
Nautical Twilight 5:50 AM AKDT 10:23 PM AKDT
Astronomical Twilight 4:51 AM AKDT 11:21 PM AKDT
Moon 9:14 AM AKDT (9/6) 8:48 PM AKDT (9/6)
Length of Visible Light 14h 51m
Length of Day
13h 30m
New Moon, 2% of the Moon is Illuminated
Sep 6
New Moon
Sep 12
First Quarter
Sep 19
Full
Sep 26
Last Quarter
Oct 4
New

Hourly Weather History & Observations

Time (AKDT) Temp. Dew Point Humidity Pressure Visibility Wind Dir Wind Speed Gust Speed Precip Events Conditions
12:53 AM 54.0 °F 48.0 °F 80% 29.83 in 10.0 mi NE 16.1 mph - N/A   Overcast
1:53 AM 54.0 °F 48.0 °F 80% 29.79 in 10.0 mi North 12.7 mph 23.0 mph N/A   Overcast
2:24 AM 55.4 °F 48.2 °F 77% 29.75 in 10.0 mi NNE 17.3 mph 32.2 mph N/A   Overcast
2:53 AM 54.0 °F 50.0 °F 86% 29.72 in 3.0 mi NNE 28.8 mph 38.0 mph 0.01 in Rain Rain
3:01 AM 53.6 °F 50.0 °F 88% 29.71 in 2.0 mi NNE 26.5 mph 35.7 mph 0.02 in Rain Heavy Rain
3:20 AM 53.6 °F 50.0 °F 88% 29.69 in 3.0 mi NNE 26.5 mph 40.3 mph 0.07 in Rain Rain
3:29 AM 53.6 °F 50.0 °F 88% 29.68 in 2.5 mi NNE 28.8 mph 39.1 mph 0.09 in Rain Rain
3:53 AM 53.1 °F 50.0 °F 89% 29.65 in 2.5 mi NNE 26.5 mph 40.3 mph 0.15 in Rain Heavy Rain
4:07 AM 53.6 °F 50.0 °F 88% 29.63 in 3.0 mi NNE 31.1 mph 38.0 mph 0.04 in Rain Rain
4:38 AM 53.6 °F 50.0 °F 88% 29.59 in 2.5 mi North 24.2 mph 39.1 mph 0.11 in Rain Heavy Rain
4:53 AM 53.1 °F 50.0 °F 89% 29.57 in 2.0 mi NNE 24.2 mph 36.8 mph 0.16 in Rain Heavy Rain
5:27 AM 53.6 °F 50.0 °F 88% 29.52 in 2.0 mi North 28.8 mph 43.7 mph 0.12 in Rain Heavy Rain
5:53 AM 54.0 °F 50.0 °F 86% 29.49 in 2.5 mi North 25.3 mph 43.7 mph 0.22 in Rain Heavy Rain
6:14 AM 53.6 °F 51.8 °F 94% 29.45 in 1.8 mi North 29.9 mph 47.2 mph 0.11 in Rain Heavy Rain
6:17 AM 53.6 °F 51.8 °F 94% 29.44 in 2.0 mi NNE 32.2 mph 43.7 mph 0.12 in Rain Heavy Rain
6:32 AM 53.6 °F 51.8 °F 94% 29.42 in 1.5 mi North 28.8 mph 47.2 mph 0.20 in Rain Heavy Rain
6:39 AM 53.6 °F 51.8 °F 94% 29.42 in 1.8 mi NNE 25.3 mph 47.2 mph 0.24 in Rain Heavy Rain
6:46 AM 53.6 °F 50.0 °F 88% 29.40 in 2.0 mi North 25.3 mph 44.9 mph 0.28 in Rain Heavy Rain
6:53 AM 54.0 °F 50.0 °F 86% 29.40 in 2.0 mi North 31.1 mph 47.2 mph 0.32 in Rain Heavy Rain
6:58 AM 53.6 °F 51.8 °F 94% 29.39 in 1.5 mi NNE 33.4 mph 47.2 mph 0.02 in Rain Heavy Rain
7:09 AM 53.6 °F 51.8 °F 94% 29.37 in 3.0 mi NNE 28.8 mph 49.5 mph 0.10 in Rain Rain
7:16 AM 55.4 °F 51.8 °F 88% 29.37 in 3.0 mi NNE 31.1 mph 47.2 mph 0.11 in Rain Light Rain
7:32 AM 53.6 °F 51.8 °F 94% 29.36 in 1.5 mi NNE 23.0 mph 41.4 mph 0.14 in Rain Rain
7:53 AM 55.0 °F 52.0 °F 89% 29.35 in 1.5 mi NNE 27.6 mph 38.0 mph 0.22 in Rain Heavy Rain
8:25 AM 53.6 °F 51.8 °F 94% 29.32 in 3.0 mi NE 25.3 mph 34.5 mph 0.09 in Rain Light Rain
8:53 AM 54.0 °F 52.0 °F 93% 29.31 in 3.0 mi ENE 15.0 mph - 0.10 in Rain Light Rain
9:53 AM 54.0 °F 52.0 °F 93% 29.28 in 3.0 mi ENE 15.0 mph - 0.01 in Rain Light Rain
10:53 AM 55.0 °F 53.1 °F 93% 29.27 in 4.0 mi East 15.0 mph 26.5 mph 0.00 in Rain Light Rain
11:53 AM 53.1 °F 52.0 °F 96% 29.26 in 4.0 mi ENE 8.1 mph - 0.00 in Rain Light Rain
12:53 PM 53.1 °F 51.1 °F 93% 29.24 in 3.0 mi ENE 17.3 mph - 0.01 in Rain Light Rain
1:53 PM 53.1 °F 51.1 °F 93% 29.21 in 3.0 mi ENE 19.6 mph - 0.01 in Rain Light Rain
2:53 PM 53.1 °F 51.1 °F 93% 29.17 in 3.0 mi ENE 18.4 mph - 0.05 in Rain Light Rain
3:53 PM 52.0 °F 50.0 °F 93% 29.14 in 3.0 mi NE 18.4 mph - 0.16 in Rain Light Rain
4:53 PM 53.1 °F 51.1 °F 93% 29.11 in 3.0 mi NNE 18.4 mph - 0.14 in Rain Light Rain
5:53 PM 54.0 °F 51.1 °F 90% 29.13 in 3.0 mi North 8.1 mph - 0.07 in Rain Light Rain
6:53 PM 53.1 °F 50.0 °F 89% 29.17 in 10.0 mi West 13.8 mph - 0.01 in Rain Light Rain
7:53 PM 55.0 °F 50.0 °F 83% 29.21 in 10.0 mi West 15.0 mph 19.6 mph 0.00 in   Overcast
8:53 PM 55.0 °F 48.9 °F 80% 29.27 in 10.0 mi West 17.3 mph - N/A   Mostly Cloudy
9:00 PM 55.4 °F 48.2 °F 77% 29.28 in 10.0 mi West 15.0 mph 24.2 mph N/A   Mostly Cloudy
9:53 PM 55.9 °F 48.0 °F 75% 29.35 in 10.0 mi West 17.3 mph 27.6 mph N/A   Mostly Cloudy
10:53 PM 55.0 °F 48.9 °F 80% 29.41 in 10.0 mi West 16.1 mph - 0.00 in   Mostly Cloudy
11:53 PM 54.0 °F 48.9 °F 83% 29.47 in 10.0 mi NW 9.2 mph - N/A   Overcast